#datetime,building,power
2024-03-25T00:00:00,axn,27.53
2024-03-25T00:01:00,axn,27.13
2024-03-25T00:02:00,axn,27.44
2024-03-25T00:03:00,axn,27.28
2024-03-25T00:04:00,axn,27.34
2024-03-25T00:05:00,axn,27.40
2024-03-25T00:06:00,axn,27.59
2024-03-25T00:07:00,axn,28.21
2024-03-25T00:08:00,axn,27.93
2024-03-25T00:09:00,axn,27.66
2024-03-25T00:10:00,axn,27.57
2024-03-25T00:11:00,axn,27.45
2024-03-25T00:12:00,axn,27.66
2024-03-25T00:13:00,axn,27.80
2024-03-25T00:14:00,axn,27.62
2024-03-25T00:15:00,axn,27.96
2024-03-25T00:16:00,axn,27.77
2024-03-25T00:17:00,axn,28.40
2024-03-25T00:18:00,axn,27.79
2024-03-25T00:19:00,axn,27.70
2024-03-25T00:20:00,axn,27.54
2024-03-25T00:21:00,axn,27.85
2024-03-25T00:22:00,axn,27.62
2024-03-25T00:23:00,axn,27.57
2024-03-25T00:24:00,axn,27.50
2024-03-25T00:25:00,axn,27.53
2024-03-25T00:26:00,axn,27.35
2024-03-25T00:27:00,axn,27.59
2024-03-25T00:28:00,axn,27.67
2024-03-25T00:29:00,axn,27.68
2024-03-25T00:30:00,axn,27.57
2024-03-25T00:31:00,axn,27.46
2024-03-25T00:32:00,axn,27.92
2024-03-25T00:33:00,axn,27.39
2024-03-25T00:34:00,axn,27.41
2024-03-25T00:35:00,axn,27.39
2024-03-25T00:36:00,axn,27.43
2024-03-25T00:37:00,axn,27.70
2024-03-25T00:38:00,axn,27.07
2024-03-25T00:39:00,axn,26.89
2024-03-25T00:40:00,axn,27.33
2024-03-25T00:41:00,axn,26.85
2024-03-25T00:42:00,axn,26.78
2024-03-25T00:43:00,axn,26.84
2024-03-25T00:44:00,axn,26.71
2024-03-25T00:45:00,axn,26.77
2024-03-25T00:46:00,axn,26.91
2024-03-25T00:47:00,axn,27.50
2024-03-25T00:48:00,axn,26.34
2024-03-25T00:49:00,axn,26.53
2024-03-25T00:50:00,axn,26.76
2024-03-25T00:51:00,axn,26.37
2024-03-25T00:52:00,axn,26.05
2024-03-25T00:53:00,axn,26.09
2024-03-25T00:54:00,axn,26.04
2024-03-25T00:55:00,axn,25.99
2024-03-25T00:56:00,axn,26.19
2024-03-25T00:57:00,axn,26.39
2024-03-25T00:58:00,axn,25.94
2024-03-25T00:59:00,axn,26.00
2024-03-25T01:00:00,axn,26.13
2024-03-25T01:01:00,axn,26.26
2024-03-25T01:02:00,axn,26.01
2024-03-25T01:03:00,axn,25.98
2024-03-25T01:04:00,axn,28.69
2024-03-25T01:05:00,axn,25.68
2024-03-25T01:06:00,axn,25.90
2024-03-25T01:07:00,axn,25.79
2024-03-25T01:08:00,axn,25.82
2024-03-25T01:09:00,axn,26.32
2024-03-25T01:10:00,axn,25.85
2024-03-25T01:11:00,axn,25.94
2024-03-25T01:12:00,axn,26.02
2024-03-25T01:13:00,axn,25.69
2024-03-25T01:14:00,axn,25.91
2024-03-25T01:15:00,axn,25.69
2024-03-25T01:16:00,axn,25.73
2024-03-25T01:17:00,axn,26.02
2024-03-25T01:18:00,axn,26.25
2024-03-25T01:19:00,axn,25.78
2024-03-25T01:20:00,axn,25.71
2024-03-25T01:21:00,axn,25.78
2024-03-25T01:22:00,axn,25.48
2024-03-25T01:23:00,axn,25.55
2024-03-25T01:24:00,axn,25.62
2024-03-25T01:25:00,axn,25.94
2024-03-25T01:26:00,axn,25.90
2024-03-25T01:27:00,axn,25.70
2024-03-25T01:28:00,axn,25.68
2024-03-25T01:29:00,axn,25.60
2024-03-25T01:30:00,axn,25.70
2024-03-25T01:31:00,axn,25.55
2024-03-25T01:32:00,axn,25.91
2024-03-25T01:33:00,axn,25.57
2024-03-25T01:34:00,axn,25.56
2024-03-25T01:35:00,axn,25.59
2024-03-25T01:36:00,axn,25.74
2024-03-25T01:37:00,axn,25.75
2024-03-25T01:38:00,axn,26.20
2024-03-25T01:39:00,axn,25.89
2024-03-25T01:40:00,axn,26.23
2024-03-25T01:41:00,axn,27.55
2024-03-25T01:42:00,axn,26.30
2024-03-25T01:43:00,axn,25.90
2024-03-25T01:44:00,axn,26.08
2024-03-25T01:45:00,axn,25.75
2024-03-25T01:46:00,axn,25.94
2024-03-25T01:47:00,axn,25.97
2024-03-25T01:48:00,axn,27.01
2024-03-25T01:49:00,axn,25.78
2024-03-25T01:50:00,axn,25.66
2024-03-25T01:51:00,axn,25.85
2024-03-25T01:52:00,axn,25.60
2024-03-25T01:53:00,axn,25.71
2024-03-25T01:54:00,axn,25.91
2024-03-25T01:55:00,axn,25.69
2024-03-25T01:56:00,axn,25.88
2024-03-25T01:57:00,axn,26.24
2024-03-25T01:58:00,axn,26.06
2024-03-25T01:59:00,axn,26.00
2024-03-25T02:00:00,axn,26.27
2024-03-25T02:01:00,axn,26.02
2024-03-25T02:02:00,axn,25.91
2024-03-25T02:03:00,axn,26.07
2024-03-25T02:04:00,axn,25.96
2024-03-25T02:05:00,axn,25.92
2024-03-25T02:06:00,axn,26.14
2024-03-25T02:07:00,axn,26.01
2024-03-25T02:08:00,axn,26.00
2024-03-25T02:09:00,axn,26.10
2024-03-25T02:10:00,axn,25.81
2024-03-25T02:11:00,axn,25.68
2024-03-25T02:12:00,axn,25.60
2024-03-25T02:13:00,axn,25.78
2024-03-25T02:14:00,axn,25.64
2024-03-25T02:15:00,axn,26.03
2024-03-25T02:16:00,axn,26.21
2024-03-25T02:17:00,axn,25.79
2024-03-25T02:18:00,axn,25.65
2024-03-25T02:19:00,axn,25.80
2024-03-25T02:20:00,axn,25.82
2024-03-25T02:21:00,axn,25.68
2024-03-25T02:22:00,axn,25.69
2024-03-25T02:23:00,axn,25.46
2024-03-25T02:24:00,axn,25.72
2024-03-25T02:25:00,axn,26.50
2024-03-25T02:26:00,axn,25.87
2024-03-25T02:27:00,axn,26.19
2024-03-25T02:28:00,axn,31.82
2024-03-25T02:29:00,axn,31.89
2024-03-25T02:30:00,axn,31.77
2024-03-25T02:31:00,axn,31.59
2024-03-25T02:32:00,axn,25.65
2024-03-25T02:33:00,axn,26.04
2024-03-25T02:34:00,axn,25.76
2024-03-25T02:35:00,axn,25.53
2024-03-25T02:36:00,axn,25.71
2024-03-25T02:37:00,axn,25.70
2024-03-25T02:38:00,axn,25.85
2024-03-25T02:39:00,axn,25.74
2024-03-25T02:40:00,axn,25.37
2024-03-25T02:41:00,axn,25.73
2024-03-25T02:42:00,axn,25.50
2024-03-25T02:43:00,axn,25.25
2024-03-25T02:44:00,axn,25.34
2024-03-25T02:45:00,axn,25.18
2024-03-25T02:46:00,axn,25.55
2024-03-25T02:47:00,axn,25.44
2024-03-25T02:48:00,axn,25.42
2024-03-25T02:49:00,axn,25.69
2024-03-25T02:50:00,axn,25.38
2024-03-25T02:51:00,axn,25.51
2024-03-25T02:52:00,axn,25.21
2024-03-25T02:53:00,axn,25.49
2024-03-25T02:54:00,axn,25.25
2024-03-25T02:55:00,axn,25.36
2024-03-25T02:56:00,axn,25.42
2024-03-25T02:57:00,axn,25.40
2024-03-25T02:58:00,axn,25.54
2024-03-25T02:59:00,axn,25.43
2024-03-25T03:00:00,axn,25.54
2024-03-25T03:01:00,axn,25.87
2024-03-25T03:02:00,axn,26.08
2024-03-25T03:03:00,axn,25.44
2024-03-25T03:04:00,axn,25.49
2024-03-25T03:05:00,axn,25.33
2024-03-25T03:06:00,axn,25.74
2024-03-25T03:07:00,axn,25.62
2024-03-25T03:08:00,axn,25.57
2024-03-25T03:09:00,axn,25.98
2024-03-25T03:10:00,axn,25.89
2024-03-25T03:11:00,axn,25.53
2024-03-25T03:12:00,axn,25.83
2024-03-25T03:13:00,axn,25.70
2024-03-25T03:14:00,axn,25.55
2024-03-25T03:15:00,axn,25.41
2024-03-25T03:16:00,axn,25.60
2024-03-25T03:17:00,axn,25.70
2024-03-25T03:18:00,axn,25.86
2024-03-25T03:19:00,axn,26.07
2024-03-25T03:20:00,axn,25.46
2024-03-25T03:21:00,axn,25.55
2024-03-25T03:22:00,axn,25.63
2024-03-25T03:23:00,axn,25.44
2024-03-25T03:24:00,axn,25.55
2024-03-25T03:25:00,axn,25.11
2024-03-25T03:26:00,axn,25.45
2024-03-25T03:27:00,axn,25.18
2024-03-25T03:28:00,axn,25.17
2024-03-25T03:29:00,axn,25.19
2024-03-25T03:30:00,axn,25.40
2024-03-25T03:31:00,axn,25.13
2024-03-25T03:32:00,axn,25.06
2024-03-25T03:33:00,axn,25.42
2024-03-25T03:34:00,axn,25.25
2024-03-25T03:35:00,axn,25.38
2024-03-25T03:36:00,axn,25.49
2024-03-25T03:37:00,axn,25.49
2024-03-25T03:38:00,axn,25.85
2024-03-25T03:39:00,axn,25.51
2024-03-25T03:40:00,axn,25.42
2024-03-25T03:41:00,axn,25.45
2024-03-25T03:42:00,axn,25.44
2024-03-25T03:43:00,axn,25.41
2024-03-25T03:44:00,axn,25.65
2024-03-25T03:45:00,axn,25.30
2024-03-25T03:46:00,axn,25.48
2024-03-25T03:47:00,axn,25.27
2024-03-25T03:48:00,axn,25.43
2024-03-25T03:49:00,axn,25.44
2024-03-25T03:50:00,axn,26.51
2024-03-25T03:51:00,axn,25.25
2024-03-25T03:52:00,axn,25.35
2024-03-25T03:53:00,axn,25.15
2024-03-25T03:54:00,axn,25.29
2024-03-25T03:55:00,axn,25.36
2024-03-25T03:56:00,axn,25.20
2024-03-25T03:57:00,axn,25.14
2024-03-25T03:58:00,axn,27.99
2024-03-25T03:59:00,axn,27.85
2024-03-25T04:00:00,axn,24.85
2024-03-25T04:01:00,axn,24.72
2024-03-25T04:02:00,axn,24.86
2024-03-25T04:03:00,axn,24.83
2024-03-25T04:04:00,axn,24.70
2024-03-25T04:05:00,axn,24.89
2024-03-25T04:06:00,axn,24.69
2024-03-25T04:07:00,axn,24.70
2024-03-25T04:08:00,axn,24.96
2024-03-25T04:09:00,axn,24.63
2024-03-25T04:10:00,axn,25.56
2024-03-25T04:11:00,axn,35.34
2024-03-25T04:12:00,axn,34.84
2024-03-25T04:13:00,axn,34.76
2024-03-25T04:14:00,axn,34.97
2024-03-25T04:15:00,axn,34.61
2024-03-25T04:16:00,axn,24.90
2024-03-25T04:17:00,axn,25.36
2024-03-25T04:18:00,axn,25.08
2024-03-25T04:19:00,axn,25.41
2024-03-25T04:20:00,axn,25.40
2024-03-25T04:21:00,axn,25.13
2024-03-25T04:22:00,axn,25.43
2024-03-25T04:23:00,axn,24.95
2024-03-25T04:24:00,axn,25.06
2024-03-25T04:25:00,axn,25.37
2024-03-25T04:26:00,axn,25.50
2024-03-25T04:27:00,axn,25.63
2024-03-25T04:28:00,axn,27.42
2024-03-25T04:29:00,axn,25.73
2024-03-25T04:30:00,axn,25.63
2024-03-25T04:31:00,axn,25.72
2024-03-25T04:32:00,axn,25.74
2024-03-25T04:33:00,axn,25.83
2024-03-25T04:34:00,axn,25.74
2024-03-25T04:35:00,axn,26.15
2024-03-25T04:36:00,axn,25.84
2024-03-25T04:37:00,axn,26.25
2024-03-25T04:38:00,axn,26.28
2024-03-25T04:39:00,axn,26.42
2024-03-25T04:40:00,axn,26.90
2024-03-25T04:41:00,axn,27.52
2024-03-25T04:42:00,axn,27.38
2024-03-25T04:43:00,axn,27.45
2024-03-25T04:44:00,axn,27.41
2024-03-25T04:45:00,axn,27.39
2024-03-25T04:46:00,axn,27.64
2024-03-25T04:47:00,axn,27.70
2024-03-25T04:48:00,axn,27.90
2024-03-25T04:49:00,axn,27.32
2024-03-25T04:50:00,axn,27.44
2024-03-25T04:51:00,axn,27.13
2024-03-25T04:52:00,axn,27.55
2024-03-25T04:53:00,axn,27.73
2024-03-25T04:54:00,axn,27.76
2024-03-25T04:55:00,axn,27.31
2024-03-25T04:56:00,axn,27.37
2024-03-25T04:57:00,axn,27.54
2024-03-25T04:58:00,axn,27.42
2024-03-25T04:59:00,axn,27.59
2024-03-25T05:00:00,axn,27.58
2024-03-25T05:01:00,axn,25.21
2024-03-25T05:02:00,axn,29.74
2024-03-25T05:03:00,axn,29.64
2024-03-25T05:04:00,axn,35.88
2024-03-25T05:05:00,axn,35.77
2024-03-25T05:06:00,axn,35.73
2024-03-25T05:07:00,axn,35.74
2024-03-25T05:08:00,axn,29.78
2024-03-25T05:09:00,axn,29.82
2024-03-25T05:10:00,axn,30.17
2024-03-25T05:11:00,axn,30.19
2024-03-25T05:12:00,axn,25.83
2024-03-25T05:13:00,axn,25.84
2024-03-25T05:14:00,axn,25.80
2024-03-25T05:15:00,axn,26.26
2024-03-25T05:16:00,axn,26.10
2024-03-25T05:17:00,axn,26.59
2024-03-25T05:18:00,axn,26.63
2024-03-25T05:19:00,axn,26.72
2024-03-25T05:20:00,axn,26.79
2024-03-25T05:21:00,axn,26.72
2024-03-25T05:22:00,axn,26.64
2024-03-25T05:23:00,axn,26.60
2024-03-25T05:24:00,axn,26.54
2024-03-25T05:25:00,axn,26.85
2024-03-25T05:26:00,axn,27.38
2024-03-25T05:27:00,axn,26.97
2024-03-25T05:28:00,axn,26.75
2024-03-25T05:29:00,axn,26.43
2024-03-25T05:30:00,axn,31.57
2024-03-25T05:31:00,axn,32.51
2024-03-25T05:32:00,axn,42.70
2024-03-25T05:33:00,axn,42.47
2024-03-25T05:34:00,axn,42.23
2024-03-25T05:35:00,axn,43.85
2024-03-25T05:36:00,axn,43.95
2024-03-25T05:37:00,axn,43.90
2024-03-25T05:38:00,axn,29.85
2024-03-25T05:39:00,axn,29.72
2024-03-25T05:40:00,axn,29.59
2024-03-25T05:41:00,axn,30.00
2024-03-25T05:42:00,axn,29.85
2024-03-25T05:43:00,axn,29.56
2024-03-25T05:44:00,axn,29.64
2024-03-25T05:45:00,axn,29.60
2024-03-25T05:46:00,axn,29.62
2024-03-25T05:47:00,axn,29.53
2024-03-25T05:48:00,axn,29.63
2024-03-25T05:49:00,axn,29.62
2024-03-25T05:50:00,axn,29.85
2024-03-25T05:51:00,axn,29.69
2024-03-25T05:52:00,axn,29.70
2024-03-25T05:53:00,axn,29.54
2024-03-25T05:54:00,axn,29.13
2024-03-25T05:55:00,axn,29.29
2024-03-25T05:56:00,axn,29.37
2024-03-25T05:57:00,axn,29.45
2024-03-25T05:58:00,axn,29.45
2024-03-25T05:59:00,axn,29.57
2024-03-25T06:00:00,axn,33.79
2024-03-25T06:01:00,axn,29.23
2024-03-25T06:02:00,axn,29.16
2024-03-25T06:03:00,axn,29.12
2024-03-25T06:04:00,axn,28.82
2024-03-25T06:05:00,axn,28.92
2024-03-25T06:06:00,axn,28.62
2024-03-25T06:07:00,axn,28.17
2024-03-25T06:08:00,axn,28.12
2024-03-25T06:09:00,axn,28.42
2024-03-25T06:10:00,axn,28.05
2024-03-25T06:11:00,axn,28.87
2024-03-25T06:12:00,axn,27.83
2024-03-25T06:13:00,axn,28.35
2024-03-25T06:14:00,axn,28.04
2024-03-25T06:15:00,axn,27.79
2024-03-25T06:16:00,axn,27.72
2024-03-25T06:17:00,axn,27.83
2024-03-25T06:18:00,axn,27.53
2024-03-25T06:19:00,axn,27.98
2024-03-25T06:20:00,axn,27.91
2024-03-25T06:21:00,axn,28.15
2024-03-25T06:22:00,axn,28.85
2024-03-25T06:23:00,axn,28.32
2024-03-25T06:24:00,axn,28.01
2024-03-25T06:25:00,axn,28.09
2024-03-25T06:26:00,axn,28.09
2024-03-25T06:27:00,axn,28.03
2024-03-25T06:28:00,axn,27.97
2024-03-25T06:29:00,axn,28.03
2024-03-25T06:30:00,axn,44.91
2024-03-25T06:31:00,axn,32.43
2024-03-25T06:32:00,axn,32.25
2024-03-25T06:33:00,axn,27.97
2024-03-25T06:34:00,axn,27.71
2024-03-25T06:35:00,axn,28.10
2024-03-25T06:36:00,axn,27.79
2024-03-25T06:37:00,axn,27.86
2024-03-25T06:38:00,axn,28.33
2024-03-25T06:39:00,axn,28.18
2024-03-25T06:40:00,axn,27.90
2024-03-25T06:41:00,axn,27.73
2024-03-25T06:42:00,axn,27.72
2024-03-25T06:43:00,axn,27.62
2024-03-25T06:44:00,axn,28.08
2024-03-25T06:45:00,axn,28.36
2024-03-25T06:46:00,axn,28.54
2024-03-25T06:47:00,axn,28.61
2024-03-25T06:48:00,axn,28.61
2024-03-25T06:49:00,axn,28.91
2024-03-25T06:50:00,axn,29.01
2024-03-25T06:51:00,axn,28.96
2024-03-25T06:52:00,axn,28.71
2024-03-25T06:53:00,axn,28.61
2024-03-25T06:54:00,axn,28.56
2024-03-25T06:55:00,axn,28.46
2024-03-25T06:56:00,axn,29.10
2024-03-25T06:57:00,axn,40.71
2024-03-25T06:58:00,axn,30.08
2024-03-25T06:59:00,axn,31.56
2024-03-25T07:00:00,axn,33.16
2024-03-25T07:01:00,axn,35.32
2024-03-25T07:02:00,axn,36.80
2024-03-25T07:03:00,axn,39.07
2024-03-25T07:04:00,axn,37.41
2024-03-25T07:05:00,axn,49.89
2024-03-25T07:06:00,axn,38.24
2024-03-25T07:07:00,axn,34.40
2024-03-25T07:08:00,axn,34.58
2024-03-25T07:09:00,axn,35.07
2024-03-25T07:10:00,axn,34.75
2024-03-25T07:11:00,axn,34.98
2024-03-25T07:12:00,axn,34.86
2024-03-25T07:13:00,axn,34.83
2024-03-25T07:14:00,axn,34.63
2024-03-25T07:15:00,axn,34.63
2024-03-25T07:16:00,axn,35.01
2024-03-25T07:17:00,axn,34.87
2024-03-25T07:18:00,axn,35.22
2024-03-25T07:19:00,axn,35.29
2024-03-25T07:20:00,axn,34.95
2024-03-25T07:21:00,axn,35.48
2024-03-25T07:22:00,axn,37.81
2024-03-25T07:23:00,axn,35.49
2024-03-25T07:24:00,axn,34.88
2024-03-25T07:25:00,axn,34.70
2024-03-25T07:26:00,axn,34.90
2024-03-25T07:27:00,axn,35.32
2024-03-25T07:28:00,axn,35.22
2024-03-25T07:29:00,axn,34.87
2024-03-25T07:30:00,axn,35.74
2024-03-25T07:31:00,axn,35.82
2024-03-25T07:32:00,axn,34.71
2024-03-25T07:33:00,axn,34.84
2024-03-25T07:34:00,axn,38.31
2024-03-25T07:35:00,axn,42.89
2024-03-25T07:36:00,axn,38.52
2024-03-25T07:37:00,axn,38.86
2024-03-25T07:38:00,axn,38.62
2024-03-25T07:39:00,axn,49.78
2024-03-25T07:40:00,axn,38.65
2024-03-25T07:41:00,axn,39.18
2024-03-25T07:42:00,axn,38.79
2024-03-25T07:43:00,axn,38.85
2024-03-25T07:44:00,axn,39.98
2024-03-25T07:45:00,axn,39.73
2024-03-25T07:46:00,axn,38.97
2024-03-25T07:47:00,axn,39.52
2024-03-25T07:48:00,axn,39.30
2024-03-25T07:49:00,axn,39.84
2024-03-25T07:50:00,axn,39.87
2024-03-25T07:51:00,axn,39.25
2024-03-25T07:52:00,axn,38.99
2024-03-25T07:53:00,axn,39.22
2024-03-25T07:54:00,axn,38.93
2024-03-25T07:55:00,axn,39.50
2024-03-25T07:56:00,axn,39.95
2024-03-25T07:57:00,axn,39.35
2024-03-25T07:58:00,axn,38.70
2024-03-25T07:59:00,axn,38.62
2024-03-25T08:00:00,axn,38.79
2024-03-25T08:01:00,axn,40.70
2024-03-25T08:02:00,axn,40.91
2024-03-25T08:03:00,axn,40.87
2024-03-25T08:04:00,axn,40.86
2024-03-25T08:05:00,axn,45.79
2024-03-25T08:06:00,axn,45.41
2024-03-25T08:07:00,axn,41.54
2024-03-25T08:08:00,axn,41.66
2024-03-25T08:09:00,axn,41.21
2024-03-25T08:10:00,axn,41.89
2024-03-25T08:11:00,axn,41.73
2024-03-25T08:12:00,axn,41.64
2024-03-25T08:13:00,axn,41.04
2024-03-25T08:14:00,axn,41.49
2024-03-25T08:15:00,axn,40.84
2024-03-25T08:16:00,axn,41.72
2024-03-25T08:17:00,axn,41.98
2024-03-25T08:18:00,axn,42.27
2024-03-25T08:19:00,axn,41.98
2024-03-25T08:20:00,axn,42.98
2024-03-25T08:21:00,axn,41.63
2024-03-25T08:22:00,axn,41.81
2024-03-25T08:23:00,axn,42.52
2024-03-25T08:24:00,axn,42.01
2024-03-25T08:25:00,axn,42.59
2024-03-25T08:26:00,axn,41.96
2024-03-25T08:27:00,axn,41.64
2024-03-25T08:28:00,axn,42.02
2024-03-25T08:29:00,axn,42.05
2024-03-25T08:30:00,axn,42.08
2024-03-25T08:31:00,axn,41.97
2024-03-25T08:32:00,axn,42.46
2024-03-25T08:33:00,axn,42.17
2024-03-25T08:34:00,axn,58.37
2024-03-25T08:35:00,axn,47.12
2024-03-25T08:36:00,axn,47.12
2024-03-25T08:37:00,axn,43.13
2024-03-25T08:38:00,axn,42.46
2024-03-25T08:39:00,axn,42.20
2024-03-25T08:40:00,axn,42.40
2024-03-25T08:41:00,axn,42.95
2024-03-25T08:42:00,axn,43.12
2024-03-25T08:43:00,axn,43.43
2024-03-25T08:44:00,axn,43.32
2024-03-25T08:45:00,axn,43.38
2024-03-25T08:46:00,axn,43.93
2024-03-25T08:47:00,axn,43.55
2024-03-25T08:48:00,axn,42.59
2024-03-25T08:49:00,axn,42.94
2024-03-25T08:50:00,axn,42.88
2024-03-25T08:51:00,axn,43.09
2024-03-25T08:52:00,axn,42.89
2024-03-25T08:53:00,axn,43.69
2024-03-25T08:54:00,axn,43.67
2024-03-25T08:55:00,axn,44.05
2024-03-25T08:56:00,axn,43.00
2024-03-25T08:57:00,axn,42.69
2024-03-25T08:58:00,axn,43.07
2024-03-25T08:59:00,axn,43.58
2024-03-25T09:00:00,axn,43.41
2024-03-25T09:01:00,axn,43.36
2024-03-25T09:02:00,axn,69.11
2024-03-25T09:03:00,axn,59.45
2024-03-25T09:04:00,axn,73.86
2024-03-25T09:05:00,axn,73.32
2024-03-25T09:06:00,axn,68.82
2024-03-25T09:07:00,axn,68.59
2024-03-25T09:08:00,axn,48.46
2024-03-25T09:09:00,axn,45.31
2024-03-25T09:10:00,axn,44.71
2024-03-25T09:11:00,axn,44.96
2024-03-25T09:12:00,axn,47.05
2024-03-25T09:13:00,axn,46.83
2024-03-25T09:14:00,axn,44.13
2024-03-25T09:15:00,axn,44.40
2024-03-25T09:16:00,axn,44.42
2024-03-25T09:17:00,axn,44.70
2024-03-25T09:18:00,axn,45.07
2024-03-25T09:19:00,axn,44.50
2024-03-25T09:20:00,axn,45.15
2024-03-25T09:21:00,axn,45.09
2024-03-25T09:22:00,axn,44.71
2024-03-25T09:23:00,axn,44.96
2024-03-25T09:24:00,axn,44.57
2024-03-25T09:25:00,axn,45.39
2024-03-25T09:26:00,axn,44.55
2024-03-25T09:27:00,axn,44.79
2024-03-25T09:28:00,axn,44.31
2024-03-25T09:29:00,axn,44.16
2024-03-25T09:30:00,axn,44.68
2024-03-25T09:31:00,axn,44.76
2024-03-25T09:32:00,axn,44.48
2024-03-25T09:33:00,axn,44.42
2024-03-25T09:34:00,axn,43.86
2024-03-25T09:35:00,axn,49.43
2024-03-25T09:36:00,axn,44.88
2024-03-25T09:37:00,axn,44.91
2024-03-25T09:38:00,axn,45.12
2024-03-25T09:39:00,axn,46.26
2024-03-25T09:40:00,axn,45.87
2024-03-25T09:41:00,axn,63.88
2024-03-25T09:42:00,axn,47.25
2024-03-25T09:43:00,axn,47.40
2024-03-25T09:44:00,axn,70.16
2024-03-25T09:45:00,axn,47.71
2024-03-25T09:46:00,axn,48.02
2024-03-25T09:47:00,axn,47.59
2024-03-25T09:48:00,axn,47.66
2024-03-25T09:49:00,axn,47.31
2024-03-25T09:50:00,axn,47.52
2024-03-25T09:51:00,axn,47.45
2024-03-25T09:52:00,axn,47.62
2024-03-25T09:53:00,axn,47.95
2024-03-25T09:54:00,axn,49.00
2024-03-25T09:55:00,axn,48.03
2024-03-25T09:56:00,axn,47.17
2024-03-25T09:57:00,axn,46.87
2024-03-25T09:58:00,axn,47.19
2024-03-25T09:59:00,axn,47.19
2024-03-25T10:00:00,axn,51.77
2024-03-25T10:01:00,axn,51.89
2024-03-25T10:02:00,axn,47.38
2024-03-25T10:03:00,axn,47.85
2024-03-25T10:04:00,axn,47.95
2024-03-25T10:05:00,axn,48.26
2024-03-25T10:06:00,axn,48.33
2024-03-25T10:07:00,axn,47.79
2024-03-25T10:08:00,axn,48.13
2024-03-25T10:09:00,axn,49.04
2024-03-25T10:10:00,axn,48.99
2024-03-25T10:11:00,axn,48.52
2024-03-25T10:12:00,axn,48.33
2024-03-25T10:13:00,axn,47.60
2024-03-25T10:14:00,axn,48.18
2024-03-25T10:15:00,axn,48.11
2024-03-25T10:16:00,axn,48.19
2024-03-25T10:17:00,axn,47.36
2024-03-25T10:18:00,axn,47.53
2024-03-25T10:19:00,axn,47.50
2024-03-25T10:20:00,axn,48.19
2024-03-25T10:21:00,axn,47.48
2024-03-25T10:22:00,axn,47.93
2024-03-25T10:23:00,axn,47.57
2024-03-25T10:24:00,axn,51.83
2024-03-25T10:25:00,axn,51.52
2024-03-25T10:26:00,axn,47.37
2024-03-25T10:27:00,axn,47.23
2024-03-25T10:28:00,axn,46.84
2024-03-25T10:29:00,axn,47.11
2024-03-25T10:30:00,axn,47.28
2024-03-25T10:31:00,axn,47.29
2024-03-25T10:32:00,axn,46.81
2024-03-25T10:33:00,axn,47.39
2024-03-25T10:34:00,axn,47.19
2024-03-25T10:35:00,axn,47.66
2024-03-25T10:36:00,axn,47.88
2024-03-25T10:37:00,axn,47.10
2024-03-25T10:38:00,axn,47.18
2024-03-25T10:39:00,axn,47.10
2024-03-25T10:40:00,axn,50.16
2024-03-25T10:41:00,axn,50.34
2024-03-25T10:42:00,axn,46.61
2024-03-25T10:43:00,axn,46.60
2024-03-25T10:44:00,axn,46.41
2024-03-25T10:45:00,axn,46.06
2024-03-25T10:46:00,axn,46.03
2024-03-25T10:47:00,axn,46.42
2024-03-25T10:48:00,axn,50.57
2024-03-25T10:49:00,axn,50.46
2024-03-25T10:50:00,axn,47.21
2024-03-25T10:51:00,axn,46.10
2024-03-25T10:52:00,axn,46.93
2024-03-25T10:53:00,axn,46.73
2024-03-25T10:54:00,axn,46.49
2024-03-25T10:55:00,axn,46.37
2024-03-25T10:56:00,axn,46.07
2024-03-25T10:57:00,axn,44.15
2024-03-25T10:58:00,axn,43.76
2024-03-25T10:59:00,axn,43.39
2024-03-25T11:00:00,axn,43.06
2024-03-25T11:01:00,axn,47.79
2024-03-25T11:02:00,axn,43.09
2024-03-25T11:03:00,axn,43.89
2024-03-25T11:04:00,axn,43.49
2024-03-25T11:05:00,axn,43.72
2024-03-25T11:06:00,axn,42.82
2024-03-25T11:07:00,axn,42.72
2024-03-25T11:08:00,axn,43.86
2024-03-25T11:09:00,axn,44.32
2024-03-25T11:10:00,axn,43.62
2024-03-25T11:11:00,axn,43.97
2024-03-25T11:12:00,axn,43.17
2024-03-25T11:13:00,axn,43.40
2024-03-25T11:14:00,axn,49.51
2024-03-25T11:15:00,axn,49.06
2024-03-25T11:16:00,axn,44.74
2024-03-25T11:17:00,axn,52.22
2024-03-25T11:18:00,axn,51.87
2024-03-25T11:19:00,axn,51.80
2024-03-25T11:20:00,axn,52.26
2024-03-25T11:21:00,axn,51.72
2024-03-25T11:22:00,axn,51.77
2024-03-25T11:23:00,axn,51.19
2024-03-25T11:24:00,axn,51.22
2024-03-25T11:25:00,axn,51.83
2024-03-25T11:26:00,axn,51.39
2024-03-25T11:27:00,axn,51.54
2024-03-25T11:28:00,axn,51.09
2024-03-25T11:29:00,axn,51.81
2024-03-25T11:30:00,axn,52.07
2024-03-25T11:31:00,axn,52.12
2024-03-25T11:32:00,axn,51.76
2024-03-25T11:33:00,axn,52.14
2024-03-25T11:34:00,axn,51.97
2024-03-25T11:35:00,axn,51.72
2024-03-25T11:36:00,axn,51.46
2024-03-25T11:37:00,axn,51.41
2024-03-25T11:38:00,axn,51.74
2024-03-25T11:39:00,axn,51.33
2024-03-25T11:40:00,axn,55.95
2024-03-25T11:41:00,axn,61.66
2024-03-25T11:42:00,axn,57.63
2024-03-25T11:43:00,axn,57.53
2024-03-25T11:44:00,axn,51.53
2024-03-25T11:45:00,axn,51.23
2024-03-25T11:46:00,axn,51.64
2024-03-25T11:47:00,axn,52.12
2024-03-25T11:48:00,axn,52.01
2024-03-25T11:49:00,axn,52.10
2024-03-25T11:50:00,axn,52.41
2024-03-25T11:51:00,axn,51.87
2024-03-25T11:52:00,axn,52.98
2024-03-25T11:53:00,axn,51.54
2024-03-25T11:54:00,axn,52.27
2024-03-25T11:55:00,axn,52.30
2024-03-25T11:56:00,axn,52.08
2024-03-25T11:57:00,axn,52.57
2024-03-25T11:58:00,axn,55.16
2024-03-25T11:59:00,axn,55.39
2024-03-25T12:00:00,axn,51.95
2024-03-25T12:01:00,axn,51.98
2024-03-25T12:02:00,axn,51.90
2024-03-25T12:03:00,axn,52.87
2024-03-25T12:04:00,axn,53.00
2024-03-25T12:05:00,axn,53.68
2024-03-25T12:06:00,axn,52.99
2024-03-25T12:07:00,axn,53.39
2024-03-25T12:08:00,axn,53.04
2024-03-25T12:09:00,axn,49.92
2024-03-25T12:10:00,axn,44.45
2024-03-25T12:11:00,axn,43.77
2024-03-25T12:12:00,axn,43.77
2024-03-25T12:13:00,axn,44.83
2024-03-25T12:14:00,axn,44.58
2024-03-25T12:15:00,axn,45.14
2024-03-25T12:16:00,axn,44.59
2024-03-25T12:17:00,axn,44.08
2024-03-25T12:18:00,axn,44.39
2024-03-25T12:19:00,axn,43.93
2024-03-25T12:20:00,axn,43.67
2024-03-25T12:21:00,axn,43.62
2024-03-25T12:22:00,axn,43.47
2024-03-25T12:23:00,axn,43.88
2024-03-25T12:24:00,axn,43.48
2024-03-25T12:25:00,axn,42.65
2024-03-25T12:26:00,axn,43.64
2024-03-25T12:27:00,axn,43.16
2024-03-25T12:28:00,axn,43.34
2024-03-25T12:29:00,axn,43.14
2024-03-25T12:30:00,axn,44.18
2024-03-25T12:31:00,axn,43.76
2024-03-25T12:32:00,axn,43.82
2024-03-25T12:33:00,axn,43.49
2024-03-25T12:34:00,axn,42.65
2024-03-25T12:35:00,axn,42.22
2024-03-25T12:36:00,axn,42.19
2024-03-25T12:37:00,axn,42.17
2024-03-25T12:38:00,axn,43.74
2024-03-25T12:39:00,axn,46.94
2024-03-25T12:40:00,axn,56.54
2024-03-25T12:41:00,axn,42.53
2024-03-25T12:42:00,axn,56.94
2024-03-25T12:43:00,axn,56.20
2024-03-25T12:44:00,axn,56.59
2024-03-25T12:45:00,axn,56.65
2024-03-25T12:46:00,axn,43.05
2024-03-25T12:47:00,axn,42.99
2024-03-25T12:48:00,axn,42.87
2024-03-25T12:49:00,axn,43.31
2024-03-25T12:50:00,axn,42.30
2024-03-25T12:51:00,axn,56.76
2024-03-25T12:52:00,axn,42.39
2024-03-25T12:53:00,axn,43.65
2024-03-25T12:54:00,axn,42.53
2024-03-25T12:55:00,axn,42.56
2024-03-25T12:56:00,axn,42.67
2024-03-25T12:57:00,axn,42.37
2024-03-25T12:58:00,axn,52.76
2024-03-25T12:59:00,axn,69.03
2024-03-25T13:00:00,axn,57.10
2024-03-25T13:01:00,axn,57.12
2024-03-25T13:02:00,axn,42.72
2024-03-25T13:03:00,axn,42.91
2024-03-25T13:04:00,axn,43.99
2024-03-25T13:05:00,axn,42.80
2024-03-25T13:06:00,axn,42.77
2024-03-25T13:07:00,axn,42.69
2024-03-25T13:08:00,axn,42.86
2024-03-25T13:09:00,axn,42.69
2024-03-25T13:10:00,axn,42.59
2024-03-25T13:11:00,axn,42.28
2024-03-25T13:12:00,axn,42.45
2024-03-25T13:13:00,axn,42.52
2024-03-25T13:14:00,axn,50.46
2024-03-25T13:15:00,axn,50.34
2024-03-25T13:16:00,axn,51.18
2024-03-25T13:17:00,axn,51.56
2024-03-25T13:18:00,axn,50.95